Location: Unspecified
(48.2082°N, 0.0000°E)
Time: 05:54:09
(UTC+00:00)

Transit 4A - Pass Details

Date: 21 June 2019
Orbit: 862 x 982 km, 66.8° (Epoch: 15 July)

Event Time Altitude Azimuth Distance (km) Brightness Sun altitude
Rises 07:05:41 0° 168° (SSE) 3,604 11.1 27.7°
Reaches altitude 10° 07:08:45 10° 153° (SSE) 2,683 10.7 28.2°
Maximum altitude 07:13:23 22° 105° (ESE) 1,980 11.4 29.0°
Drops below altitude 10° 07:18:05 10° 58° (ENE) 2,735 11.4 29.8°
Sets 07:21:15 0° 44° (NE) 3,694 11.6 30.3°
